AUA1109 LOWK-LOWW

Flight info

Callsign AUA1109
Flight time 0h 29m
Altitude 150000
Route ABIRI2L ABIRI DCT NIGSI NIGSI2W
Aircraft A321/M-V/N

Departure

Time 2026-04-20 17:12
Airport Klagenfurt Airport (LOWK)

Arrival

Time 2026-04-20 17:41
Airport Vienna International Airport (LOWW)
Time Latitude Longitude Altitude Speed Heading
2026-04-20 17:04 46.64921 14.32498 1460 ft 0 kts 255°
2026-04-20 17:05 46.64921 14.32497 1479 ft 0 kts 255°
2026-04-20 17:06 46.64921 14.32498 1479 ft 0 kts 255°
2026-04-20 17:09 46.64912 14.32470 1469 ft 6 kts 232°
2026-04-20 17:09 46.64863 14.32453 1479 ft 11 kts 190°
2026-04-20 17:10 46.64767 14.32474 1468 ft 17 kts 173°
2026-04-20 17:10 46.64655 14.32462 1474 ft 16 kts 193°
2026-04-20 17:10 46.64570 14.32426 1477 ft 0 kts 197°
2026-04-20 17:10 46.64563 14.32423 1477 ft 4 kts 196°
2026-04-20 17:11 46.64520 14.32439 1472 ft 6 kts 150°
2026-04-20 17:11 46.64510 14.32481 1474 ft 5 kts 104°
2026-04-20 17:11 46.64479 14.32642 1473 ft 43 kts 105°
2026-04-20 17:11 46.64334 14.33376 1479 ft 105 kts 106°
2026-04-20 17:12 46.64082 14.34636 1472 ft 152 kts 107°
2026-04-20 17:12 46.63782 14.36109 2102 ft 146 kts 106°
2026-04-20 17:12 46.63478 14.37564 2587 ft 155 kts 107°
2026-04-20 17:12 46.63159 14.39112 3111 ft 159 kts 105°
2026-04-20 17:13 46.62851 14.40692 3549 ft 166 kts 106°
2026-04-20 17:13 46.62532 14.42312 3985 ft 173 kts 105°
2026-04-20 17:13 46.62184 14.44033 4423 ft 181 kts 106°
2026-04-20 17:13 46.61816 14.45818 4795 ft 192 kts 106°
2026-04-20 17:14 46.61420 14.47799 5052 ft 213 kts 105°
2026-04-20 17:14 46.61293 14.50032 5335 ft 234 kts 76°
2026-04-20 17:14 46.61911 14.52315 5678 ft 255 kts 63°
2026-04-20 17:14 46.62692 14.54697 6336 ft 264 kts 62°
2026-04-20 17:15 46.63502 14.57147 7080 ft 270 kts 62°
2026-04-20 17:15 46.64315 14.59616 7819 ft 276 kts 62°
2026-04-20 17:15 46.65186 14.62283 8581 ft 282 kts 62°
2026-04-20 17:15 46.66004 14.64795 9289 ft 287 kts 62°
2026-04-20 17:16 46.66864 14.67450 10028 ft 292 kts 62°
2026-04-20 17:16 46.67758 14.70213 10346 ft 313 kts 62°
2026-04-20 17:16 46.68707 14.73147 10573 ft 336 kts 62°
2026-04-20 17:16 46.69730 14.76314 10940 ft 351 kts 62°
2026-04-20 17:17 46.70785 14.79605 11576 ft 358 kts 62°
2026-04-20 17:17 46.71851 14.82933 12206 ft 365 kts 62°
2026-04-20 17:17 46.72930 14.86310 12865 ft 370 kts 62°
2026-04-20 17:17 46.74024 14.89746 13506 ft 377 kts 62°
2026-04-20 17:18 46.75136 14.93241 14111 ft 383 kts 62°
2026-04-20 17:18 46.76375 14.96684 14689 ft 385 kts 54°
2026-04-20 17:18 46.77981 14.99810 14945 ft 385 kts 45°
2026-04-20 17:18 46.79727 15.02812 15001 ft 391 kts 45°
2026-04-20 17:19 46.81498 15.05852 15008 ft 393 kts 45°
2026-04-20 17:19 46.83267 15.08894 15002 ft 394 kts 45°
2026-04-20 17:19 46.85037 15.11945 15004 ft 394 kts 45°
2026-04-20 17:19 46.86805 15.15008 15010 ft 394 kts 45°
2026-04-20 17:20 46.88568 15.18079 15002 ft 395 kts 45°
2026-04-20 17:20 46.90325 15.21155 15002 ft 394 kts 46°
2026-04-20 17:20 46.92083 15.24234 15001 ft 394 kts 45°
2026-04-20 17:20 46.93846 15.27318 15004 ft 394 kts 45°
2026-04-20 17:21 46.95630 15.30437 15006 ft 395 kts 45°
2026-04-20 17:21 46.97391 15.33514 15009 ft 394 kts 45°
2026-04-20 17:21 46.99153 15.36593 15011 ft 394 kts 45°
2026-04-20 17:21 47.00914 15.39678 15015 ft 394 kts 45°
2026-04-20 17:22 47.02670 15.42761 15017 ft 394 kts 45°
2026-04-20 17:22 47.04425 15.45851 15017 ft 394 kts 45°
2026-04-20 17:22 47.06182 15.48945 15027 ft 394 kts 45°
2026-04-20 17:22 47.07938 15.52037 15020 ft 394 kts 45°
2026-04-20 17:23 47.09805 15.55321 15009 ft 412 kts 45°
2026-04-20 17:23 47.11602 15.58470 15003 ft 430 kts 46°
2026-04-20 17:23 47.13533 15.61873 15003 ft 436 kts 46°
2026-04-20 17:23 47.15473 15.65311 15007 ft 438 kts 46°
2026-04-20 17:24 47.17375 15.68703 15000 ft 419 kts 46°
2026-04-20 17:24 47.19199 15.71926 15002 ft 403 kts 43°
2026-04-20 17:24 47.21249 15.74669 15007 ft 396 kts 35°
2026-04-20 17:24 47.23346 15.77293 15007 ft 395 kts 35°
2026-04-20 17:25 47.25438 15.79919 15009 ft 395 kts 36°
2026-04-20 17:25 47.27527 15.82547 15007 ft 395 kts 36°
2026-04-20 17:25 47.29611 15.85172 15018 ft 395 kts 36°
2026-04-20 17:25 47.31698 15.87797 15015 ft 395 kts 36°
2026-04-20 17:26 47.33787 15.90420 15003 ft 394 kts 36°
2026-04-20 17:26 47.35868 15.93041 15008 ft 390 kts 36°
2026-04-20 17:26 47.37872 15.95585 15004 ft 371 kts 36°
2026-04-20 17:26 47.39779 15.98016 15011 ft 354 kts 36°
2026-04-20 17:27 47.41600 16.00335 14976 ft 338 kts 35°
2026-04-20 17:27 47.43387 16.02598 14378 ft 343 kts 35°
2026-04-20 17:27 47.45213 16.04892 13856 ft 344 kts 36°
2026-04-20 17:27 47.47028 16.07182 13416 ft 342 kts 36°
2026-04-20 17:28 47.48628 16.09061 12798 ft 334 kts 33°
2026-04-20 17:28 47.50444 16.11237 12267 ft 335 kts 36°
2026-04-20 17:28 47.52204 16.13494 11869 ft 333 kts 37°
2026-04-20 17:28 47.53929 16.15767 11449 ft 331 kts 37°
2026-04-20 17:29 47.55632 16.18018 10814 ft 326 kts 37°
2026-04-20 17:29 47.57320 16.20225 10179 ft 323 kts 37°
2026-04-20 17:29 47.59019 16.22423 9493 ft 318 kts 37°
2026-04-20 17:29 47.60662 16.24533 8776 ft 313 kts 37°
2026-04-20 17:30 47.62286 16.26616 8246 ft 297 kts 37°
2026-04-20 17:30 47.63813 16.28574 7734 ft 283 kts 37°
2026-04-20 17:30 47.65280 16.30451 7222 ft 275 kts 37°
2026-04-20 17:30 47.66698 16.32264 6728 ft 264 kts 37°
2026-04-20 17:31 47.68059 16.34009 6211 ft 253 kts 37°
2026-04-20 17:31 47.69346 16.35660 5934 ft 234 kts 37°
2026-04-20 17:31 47.70545 16.37199 5500 ft 224 kts 37°
2026-04-20 17:31 47.71719 16.38700 4960 ft 222 kts 37°
2026-04-20 17:32 47.72884 16.40186 4396 ft 219 kts 37°
2026-04-20 17:32 47.74030 16.41652 4034 ft 214 kts 37°
2026-04-20 17:32 47.75184 16.43129 4019 ft 224 kts 38°
2026-04-20 17:32 47.75965 16.44129 3902 ft 223 kts 38°
2026-04-20 17:33 47.77116 16.45611 3604 ft 217 kts 38°
2026-04-20 17:33 47.78252 16.47076 3261 ft 215 kts 38°
2026-04-20 17:33 47.79438 16.48566 3026 ft 230 kts 37°
2026-04-20 17:33 47.80617 16.50066 2995 ft 218 kts 38°
2026-04-20 17:34 47.81747 16.51534 3001 ft 214 kts 38°
2026-04-20 17:34 47.82864 16.52988 3007 ft 213 kts 38°
2026-04-20 17:34 47.83979 16.54439 3007 ft 213 kts 38°
2026-04-20 17:34 47.85090 16.55884 3006 ft 213 kts 38°
2026-04-20 17:35 47.86203 16.57331 3003 ft 212 kts 38°
2026-04-20 17:35 47.87323 16.58787 3008 ft 215 kts 38°
2026-04-20 17:35 47.88447 16.60246 3019 ft 214 kts 38°
2026-04-20 17:35 47.89561 16.61693 3014 ft 212 kts 39°
2026-04-20 17:36 47.90672 16.63137 3018 ft 211 kts 38°
2026-04-20 17:36 47.91802 16.64531 3004 ft 211 kts 30°
2026-04-20 17:36 47.93148 16.65293 3021 ft 206 kts
2026-04-20 17:36 47.94527 16.65174 3030 ft 195 kts 346°
2026-04-20 17:37 47.95749 16.64662 3029 ft 170 kts 344°
2026-04-20 17:37 47.96834 16.64203 2977 ft 154 kts 345°
2026-04-20 17:37 47.97821 16.63787 2845 ft 143 kts 344°
2026-04-20 17:37 47.98767 16.63389 2680 ft 140 kts 343°
2026-04-20 17:38 47.99690 16.63001 2512 ft 138 kts 344°
2026-04-20 17:38 48.00618 16.62611 2322 ft 137 kts 344°
2026-04-20 17:38 48.01536 16.62224 2140 ft 138 kts 345°
2026-04-20 17:38 48.02454 16.61837 1958 ft 137 kts 345°
2026-04-20 17:39 48.03372 16.61451 1766 ft 137 kts 345°
2026-04-20 17:39 48.04289 16.61064 1578 ft 137 kts 343°
2026-04-20 17:39 48.05203 16.60679 1390 ft 137 kts 343°
2026-04-20 17:39 48.06120 16.60289 1194 ft 137 kts 344°
2026-04-20 17:40 48.07034 16.59890 995 ft 136 kts 343°
2026-04-20 17:40 48.07949 16.59502 794 ft 137 kts 344°
2026-04-20 17:40 48.08863 16.59122 647 ft 136 kts 345°
2026-04-20 17:40 48.09672 16.58793 624 ft 87 kts 343°
2026-04-20 17:41 48.10077 16.58620 617 ft 50 kts 344°
2026-04-20 17:41 48.10396 16.58486 619 ft 49 kts 344°
2026-04-20 17:41 48.10703 16.58315 617 ft 45 kts 320°
2026-04-20 17:41 48.10854 16.58091 617 ft 13 kts 315°
2026-04-20 17:42 48.10889 16.58037 621 ft 0 kts 315°
2026-04-20 17:42 48.10901 16.58021 613 ft 5 kts 318°
2026-04-20 17:42 48.10929 16.57989 609 ft 6 kts 326°
2026-04-20 17:43 48.10967 16.57965 622 ft 7 kts 344°
2026-04-20 17:43 48.11015 16.57947 619 ft 8 kts 346°
2026-04-20 17:43 48.11071 16.57922 623 ft 9 kts 338°
2026-04-20 17:43 48.11114 16.57851 620 ft 10 kts 295°
2026-04-20 17:44 48.11143 16.57751 617 ft 11 kts 292°
2026-04-20 17:44 48.11181 16.57643 612 ft 12 kts 296°
2026-04-20 17:44 48.11220 16.57523 619 ft 14 kts 296°
2026-04-20 17:44 48.11263 16.57390 620 ft 15 kts 296°
2026-04-20 17:45 48.11311 16.57245 612 ft 16 kts 295°
2026-04-20 17:45 48.11323 16.57208 622 ft 11 kts 296°
2026-04-20 17:45 48.11373 16.57053 618 ft 18 kts 296°
2026-04-20 17:45 48.11434 16.56890 618 ft 16 kts 323°
2026-04-20 17:46 48.11528 16.56912 609 ft 14 kts 19°
2026-04-20 17:46 48.11595 16.56864 613 ft 11 kts 299°
2026-04-20 17:46 48.11637 16.56768 617 ft 10 kts 330°
2026-04-20 17:46 48.11688 16.56775 621 ft 1 kts 17°
2026-04-20 17:47 48.11704 16.56787 620 ft 0 kts 26°